SCP
0 0 0 -0 0 0 0 0 0 0 0 -0 -0 -0 0 -0 -0 -0 -0 -0 -0 -0 -0 -0 -0 -0 -0 -0 -0 -0 0 0
0 0 0 0 0 -0 -0 -0 0 0 0 -0 -0 -0 0 -0 -0 -0 -0 -0 -0 -0 -0 -0 -0 -0 -0 -0 -0 0 0 0
0 0 0 0 -0 -0 0 -0 0 0 -0 -0 -0 -0 -0 -0 -0 -0 -0 0 -0 -0 -0 -0 -0 -0 0 0 0 0 0 0
0 0 0 0 0 -0 -0 -0 0 -0 -0 -0 -0 -0 -0 -0 0 0 -0 0 0 -0 -0 -0 0 0 0 0 0 0 0 0
0 0 0 0 -0 0 0 -0 0 -0 -0 -0 -0 0 -0 -0 0 -0 -0 0 0 0 0 0 0 0 0 0 0 0 0 0
0 0 0 0 0 -0 -0 -0 -0 -0 0 -0 -0 -0 -0 -0 0 -0 -0 -0 0 0 0 0 0 0 0 0 0 0 0 0
0 0 0 0 0 0 0 0 0 0 0 -0 -0 -0 -0 -0 -0 -0 -0 0 -0 -0 -0 -0 -0 -0 -0 -0 0 0 0 0
0 0 0 0 -0 0 0 0 0 -0 -0 -0 -1 -0 -0 -0 0 0 0 -0 -0 -0 -0 -0 0 -0 0 0 0 0 0 0
0 0 0 0 -0 0 0 0 -0 -0 -0 -1 -1 -0 -0 -0 0 0 0 0 0 0 -0 -0 -0 0 0 0 0 0 0 0
0 0 0 0 0 -0 -0 -0 -0 -0 -0 -1 -1 -1 -0 -0 -0 -0 -0 0 -0 0 0 0 0 0 0 0 0 0 0 0
-0 -0 0 -0 0 0 -0 -0 -0 -0 -1 -1 -1 -0 -0 -0 0 0 -0 -0 -0 -0 0 0 0 0 0 0 0 0 0 0
0 0 -0 0 0 0 -0 0 -0 -0 -1 -1 -1 -1 -0 -0 -0 -0 -0 -0 -0 -0 -0 0 0 0 0 0 0 0 0 0
0 0 0 0 0 0 0 0 0 -0 -1 -1 -1 -1 -1 -0 -0 -0 -0 -0 -0 -0 0 0 0 0 0 0 0 0 0 0
0 0 0 0 0 0 -0 0 0 0 -1 -1 -1 -1 -1 -0 -0 -0 -0 -0 0 -0 -0 0 0 0 0 0 0 0 0 0
0 0 0 0 0 0 0 0 0 0 -0 -1 -1 -1 -1 -0 -0 -0 -0 -0 0 0 0 0 0 0 0 0 0 0 0 0
0 0 0 0 0 0 0 0 0 0 -0 -0 -1 -2 -0 -0 -0 0 -0 0 0 0 0 0 0 0 0 0 0 0 0 0
0 0 0 0 0 0 0 0 0 0 -0 -0 -1 -0 0 0 0 0 0 0 0 0 0 0 0 0 0 0 0 0 0 0
0 0 0 0 0 0 0 0 0 0 -0 -0 0 0 0 0 0 0 0 0 0 0 0 0 0 0 0 0 0 0 0 0
0 0 0 0 0 0 0 0 0 0 0 0 0 0 0 0 0 0 0 0 0 0 0 0 0 0 0 0 0 0 0 0
0 0 0 0 0 0 0 0 0 0 0 0 0 0 0 0 0 0 0 0 0 0 0 0 0 0 0 0 0 0 0 0
Wind_Speed_500mb
0 1 3 5 12 11 14 9 8 10 11 6 5 13 26 24 26 28 25 25 25 24 22 20 18 15 14 12 10 9 8 8
4 0 6 4 11 18 27 5 9 17 15 10 10 16 15 27 27 26 24 22 21 21 20 19 18 16 15 13 12 9 8 6
2 1 1 2 13 28 21 9 14 11 12 11 21 19 25 30 27 25 25 24 24 23 21 20 18 16 14 12 10 8 6 5
1 5 1 3 21 26 17 15 17 14 21 14 21 26 28 27 27 25 24 25 24 23 21 19 17 14 12 10 8 6 4 2
1 5 4 8 23 31 20 21 14 24 19 8 30 33 26 25 27 26 25 24 24 23 21 19 16 14 12 10 9 7 6 5
4 2 6 13 18 17 16 15 18 21 10 14 37 39 31 30 30 28 27 26 24 24 23 20 18 16 15 14 14 15 14 13
8 11 6 18 18 15 13 21 16 24 6 17 46 43 38 36 36 34 31 28 27 25 24 25 24 22 20 18 17 16 14 13
6 7 6 27 25 28 17 21 18 24 11 30 48 47 41 42 42 37 34 31 29 30 33 30 28 24 21 18 17 15 13 12
12 13 10 24 24 25 23 19 37 46 30 46 53 49 42 40 39 37 32 31 36 37 33 31 28 24 22 19 16 13 12 10
3 18 14 18 25 30 38 14 35 31 37 50 55 52 47 42 42 39 35 36 37 38 35 33 30 26 23 19 16 14 14 13
24 15 25 19 33 29 44 26 15 34 41 52 53 50 48 47 44 45 42 42 42 41 40 37 33 29 24 19 19 19 18 21
12 10 14 19 21 24 32 42 26 43 48 52 56 57 52 56 55 52 47 45 46 41 42 39 35 29 26 25 25 26 27 29
4 6 7 25 11 33 34 35 43 42 44 49 56 57 63 61 62 58 52 48 51 47 45 40 35 33 31 32 33 33 33 35
8 6 9 3 15 30 22 33 44 42 43 49 59 66 63 63 65 64 61 57 50 52 48 44 39 37 37 38 38 36 36 38
3 5 15 13 5 3 29 32 37 44 46 50 54 63 66 67 68 70 68 65 60 57 54 49 47 46 43 41 39 37 37 39
4 8 7 14 22 16 16 36 46 48 46 50 57 72 71 68 72 73 76 75 67 63 57 56 58 50 44 39 36 34 35 37
8 4 7 13 16 11 11 32 47 53 46 52 66 40 49 66 69 70 72 76 74 65 62 50 49 44 39 35 31 32 35 43
10 2 8 4 13 4 7 16 37 34 36 33 25 24 38 46 60 71 70 71 70 62 51 48 43 39 32 26 30 37 44 55
10 2 3 7 8 9 7 10 11 10 11 5 14 23 41 52 53 63 70 68 64 57 49 46 37 27 20 23 33 42 53 64
10 9 6 4 6 5 15 20 25 28 26 23 25 26 29 38 47 52 55 54 51 53 51 41 31 18 13 25 41 59 62 57
Wind_Direction_500mb
151 105 32 100 197 156 146 95 125 129 68 53 34 141 146 153 154 153 159 156 156 154 154 156 156 156 150 144 141 142 151 160
264 229 86 54 162 144 146 126 64 119 87 96 117 139 154 151 153 155 156 149 146 142 145 149 151 152 148 145 147 147 140 144
152 359 349 206 167 155 151 139 140 154 134 127 156 143 151 156 161 163 159 156 152 146 146 147 146 145 142 141 144 147 158 173
137 75 37 99 156 158 164 159 154 129 134 138 163 152 153 160 163 164 165 164 160 155 151 148 147 149 151 157 158 158 162 148
283 40 106 128 151 168 158 158 166 152 150 159 173 172 166 162 163 165 166 166 164 161 157 155 151 153 148 146 136 131 109 93
203 183 109 144 158 173 163 163 156 172 165 178 182 177 171 171 168 167 169 167 166 160 155 151 149 142 135 129 121 112 106 97
143 176 135 172 180 176 155 153 179 186 187 197 177 175 178 175 172 172 172 166 161 159 155 151 144 138 135 128 123 120 111 105
191 180 181 179 187 166 169 165 204 197 202 183 180 182 185 182 179 175 175 162 169 166 156 149 151 149 145 147 148 140 135 133
218 202 166 177 182 178 175 195 202 202 187 178 184 190 192 191 188 185 172 167 166 162 162 163 163 166 166 166 168 164 162 170
245 203 178 184 181 195 200 210 207 205 192 183 187 195 195 198 196 193 187 177 175 174 176 177 179 180 179 181 186 190 205 223
261 239 227 197 195 190 218 227 225 203 197 193 192 198 200 204 205 205 197 191 191 191 189 190 188 192 193 198 207 219 232 248
292 288 194 196 196 196 232 213 220 200 197 195 200 203 204 208 211 212 208 204 203 204 206 204 199 200 206 215 226 235 246 259
74 131 164 162 191 220 218 198 206 203 197 198 208 209 212 214 214 215 217 216 216 215 214 216 215 214 220 229 238 247 256 266
63 162 139 214 196 231 204 189 208 211 204 206 213 220 219 219 223 223 225 225 225 225 226 222 226 231 234 239 245 253 262 270
98 38 153 225 240 319 191 195 212 210 210 212 217 223 223 225 227 229 232 234 231 232 234 232 231 238 240 241 247 255 266 274
202 180 200 208 239 255 209 208 220 217 214 217 221 228 228 228 232 233 238 241 240 239 241 239 237 237 236 243 252 265 273 285
266 274 249 218 253 267 193 222 229 226 218 222 228 231 235 237 239 241 243 244 246 242 241 238 226 224 232 243 258 274 292 301
266 248 209 210 263 256 283 255 251 250 246 255 255 250 247 248 241 244 245 246 244 238 227 221 219 227 232 249 272 286 294 311
238 121 88 302 229 17 32 53 96 64 26 340 281 269 261 253 245 242 242 242 240 225 218 216 217 221 236 264 278 293 303 309
205 186 252 319 279 66 2 71 44 21 10 349 306 280 251 245 237 236 235 233 231 220 217 211 205 201 242 283 311 311 310 310
Wind_Speed_850mb
0 1 3 5 12 11 14 9 8 10 11 6 5 13 26 24 26 28 25 25 25 24 22 20 18 15 14 12 10 9 8 8
4 0 6 4 11 18 27 5 9 17 15 10 10 16 15 27 27 26 24 22 21 21 20 19 18 16 15 13 12 9 8 6
2 1 1 2 13 28 21 9 14 11 12 11 21 19 25 30 27 25 25 24 24 23 21 20 18 16 14 12 10 8 6 5
1 5 1 3 21 26 17 15 17 14 21 14 21 26 28 27 27 25 24 25 24 23 21 19 17 14 12 10 8 6 4 2
1 5 4 8 23 31 20 21 14 24 19 8 30 33 26 25 27 26 25 24 24 23 21 19 16 14 12 10 9 7 6 5
4 2 6 13 18 17 16 15 18 21 10 14 37 39 31 30 30 28 27 26 24 24 23 20 18 16 15 14 14 15 14 13
8 11 6 18 18 15 13 21 16 24 6 17 46 43 38 36 36 34 31 28 27 25 24 25 24 22 20 18 17 16 14 13
6 7 6 27 25 28 17 21 18 24 11 30 48 47 41 42 42 37 34 31 29 30 33 30 28 24 21 18 17 15 13 12
12 13 10 24 24 25 23 19 37 46 30 46 53 49 42 40 39 37 32 31 36 37 33 31 28 24 22 19 16 13 12 10
3 18 14 18 25 30 38 14 35 31 37 50 55 52 47 42 42 39 35 36 37 38 35 33 30 26 23 19 16 14 14 13
24 15 25 19 33 29 44 26 15 34 41 52 53 50 48 47 44 45 42 42 42 41 40 37 33 29 24 19 19 19 18 21
12 10 14 19 21 24 32 42 26 43 48 52 56 57 52 56 55 52 47 45 46 41 42 39 35 29 26 25 25 26 27 29
4 6 7 25 11 33 34 35 43 42 44 49 56 57 63 61 62 58 52 48 51 47 45 40 35 33 31 32 33 33 33 35
8 6 9 3 15 30 22 33 44 42 43 49 59 66 63 63 65 64 61 57 50 52 48 44 39 37 37 38 38 36 36 38
3 5 15 13 5 3 29 32 37 44 46 50 54 63 66 67 68 70 68 65 60 57 54 49 47 46 43 41 39 37 37 39
4 8 7 14 22 16 16 36 46 48 46 50 57 72 71 68 72 73 76 75 67 63 57 56 58 50 44 39 36 34 35 37
8 4 7 13 16 11 11 32 47 53 46 52 66 40 49 66 69 70 72 76 74 65 62 50 49 44 39 35 31 32 35 43
10 2 8 4 13 4 7 16 37 34 36 33 25 24 38 46 60 71 70 71 70 62 51 48 43 39 32 26 30 37 44 55
10 2 3 7 8 9 7 10 11 10 11 5 14 23 41 52 53 63 70 68 64 57 49 46 37 27 20 23 33 42 53 64
10 9 6 4 6 5 15 20 25 28 26 23 25 26 29 38 47 52 55 54 51 53 51 41 31 18 13 25 41 59 62 57
Wind_Direction_850mb
151 105 32 100 197 156 146 95 125 129 68 53 34 141 146 153 154 153 159 156 156 154 154 156 156 156 150 144 141 142 151 160
264 229 86 54 162 144 146 126 64 119 87 96 117 139 154 151 153 155 156 149 146 142 145 149 151 152 148 145 147 147 140 144
152 359 349 206 167 155 151 139 140 154 134 127 156 143 151 156 161 163 159 156 152 146 146 147 146 145 142 141 144 147 158 173
137 75 37 99 156 158 164 159 154 129 134 138 163 152 153 160 163 164 165 164 160 155 151 148 147 149 151 157 158 158 162 148
283 40 106 128 151 168 158 158 166 152 150 159 173 172 166 162 163 165 166 166 164 161 157 155 151 153 148 146 136 131 109 93
203 183 109 144 158 173 163 163 156 172 165 178 182 177 171 171 168 167 169 167 166 160 155 151 149 142 135 129 121 112 106 97
143 176 135 172 180 176 155 153 179 186 187 197 177 175 178 175 172 172 172 166 161 159 155 151 144 138 135 128 123 120 111 105
191 180 181 179 187 166 169 165 204 197 202 183 180 182 185 182 179 175 175 162 169 166 156 149 151 149 145 147 148 140 135 133
218 202 166 177 182 178 175 195 202 202 187 178 184 190 192 191 188 185 172 167 166 162 162 163 163 166 166 166 168 164 162 170
245 203 178 184 181 195 200 210 207 205 192 183 187 195 195 198 196 193 187 177 175 174 176 177 179 180 179 181 186 190 205 223
261 239 227 197 195 190 218 227 225 203 197 193 192 198 200 204 205 205 197 191 191 191 189 190 188 192 193 198 207 219 232 248
292 288 194 196 196 196 232 213 220 200 197 195 200 203 204 208 211 212 208 204 203 204 206 204 199 200 206 215 226 235 246 259
74 131 164 162 191 220 218 198 206 203 197 198 208 209 212 214 214 215 217 216 216 215 214 216 215 214 220 229 238 247 256 266
63 162 139 214 196 231 204 189 208 211 204 206 213 220 219 219 223 223 225 225 225 225 226 222 226 231 234 239 245 253 262 270
98 38 153 225 240 319 191 195 212 210 210 212 217 223 223 225 227 229 232 234 231 232 234 232 231 238 240 241 247 255 266 274
202 180 200 208 239 255 209 208 220 217 214 217 221 228 228 228 232 233 238 241 240 239 241 239 237 237 236 243 252 265 273 285
266 274 249 218 253 267 193 222 229 226 218 222 228 231 235 237 239 241 243 244 246 242 241 238 226 224 232 243 258 274 292 301
266 248 209 210 263 256 283 255 251 250 246 255 255 250 247 248 241 244 245 246 244 238 227 221 219 227 232 249 272 286 294 311
238 121 88 302 229 17 32 53 96 64 26 340 281 269 261 253 245 242 242 242 240 225 218 216 217 221 236 264 278 293 303 309
205 186 252 319 279 66 2 71 44 21 10 349 306 280 251 245 237 236 235 233 231 220 217 211 205 201 242 283 311 311 310 310